Theta_e
309 310 309 310 311 311 312 311 311 312 313 314 316 317 318 318 318 309 308 308 306 300 303 307 308 304 303 301 298 300 300 298 296 292 291 291 290 292 291 291 292 291 290 290 287 286 287 305 303 300 303 307 313 311
308 308 308 308 308 309 308 309 308 310 311 312 314 317 316 318 318 314 306 311 309 304 305 308 310 312 311 309 304 301 299 298 298 294 293 292 292 291 289 289 294 292 295 292 294 294 301 303 303 305 307 305 305 306
307 307 307 307 307 307 307 307 307 307 309 313 314 314 316 318 318 316 308 305 306 301 303 303 305 309 310 311 313 302 299 302 298 298 295 293 292 293 290 291 291 296 297 295 296 296 300 304 305 305 304 304 305 306
307 306 306 306 306 305 306 306 306 307 307 309 311 312 313 315 316 318 311 309 309 302 297 301 310 307 311 310 310 311 304 300 299 299 295 293 293 296 293 295 294 298 297 295 295 299 299 302 303 305 306 307 306 305
306 306 306 305 305 305 305 305 306 305 306 308 309 310 311 312 314 315 314 313 311 303 297 299 305 308 309 309 310 309 305 301 299 297 295 295 295 295 294 294 294 299 297 294 296 303 299 301 305 307 306 306 307 305
307 307 307 306 305 305 306 306 306 306 306 307 308 307 308 310 313 311 307 304 307 304 298 295 304 306 308 309 308 307 304 299 299 298 296 297 298 298 293 292 299 301 300 302 301 303 301 304 305 308 306 307 307 305
307 308 308 308 307 307 307 307 307 307 306 306 306 307 309 309 309 307 305 303 306 305 303 296 298 307 308 307 305 301 300 300 300 298 297 298 298 299 294 294 302 303 303 303 304 303 302 304 303 306 306 308 308 306
308 308 308 307 307 307 307 307 307 307 307 307 307 308 309 309 309 307 310 309 309 306 305 300 298 303 304 302 301 301 298 298 297 297 297 297 296 296 292 297 302 304 303 303 305 305 304 305 304 304 304 304 307 308
308 308 308 308 308 307 307 307 307 307 307 307 307 307 308 306 303 302 311 307 307 308 303 301 296 297 305 300 301 302 300 297 299 296 296 297 295 294 297 298 300 300 301 302 304 306 306 305 305 306 305 304 305 307
308 308 308 308 308 307 307 306 307 307 307 307 304 304 298 304 312 309 299 295 298 303 302 299 300 297 302 299 299 299 299 297 294 299 298 295 295 300 300 301 303 304 305 306 303 302 303 304 304 305 305 306 306 307
307 307 307 308 308 307 307 306 306 306 305 303 301 300 304 312 303 301 297 295 297 295 297 298 299 300 302 298 297 299 296 297 294 298 297 293 293 298 303 303 304 305 306 307 306 306 305 305 304 304 305 306 307 308
306 306 306 306 307 307 307 306 306 302 301 301 300 303 305 301 299 295 294 294 294 291 294 294 296 296 300 302 299 299 297 297 293 297 294 291 295 301 303 306 306 306 305 306 306 305 305 305 305 306 306 307 308 308
306 306 306 306 306 306 307 306 306 306 305 302 299 299 298 296 290 289 287 292 293 296 296 295 295 297 298 300 299 301 298 296 298 293 292 293 299 303 303 304 304 304 305 305 305 305 306 306 307 308 307 309 309 308
306 306 305 305 305 306 306 306 306 305 300 295 294 289 291 290 290 289 291 293 297 299 301 301 298 298 299 296 299 296 298 297 291 289 291 296 301 302 303 303 302 302 303 302 303 305 306 306 307 309 309 310 309 307
306 305 305 305 305 305 305 304 305 302 297 293 295 287 291 294 294 296 297 296 297 300 298 298 300 302 300 297 297 296 294 291 291 290 293 298 301 302 302 302 301 300 301 302 303 304 305 307 309 308 310 310 310 309
305 305 304 305 305 305 304 303 302 300 296 292 292 292 294 294 294 296 296 295 298 298 301 302 299 297 297 298 294 292 291 290 292 295 299 300 301 302 301 301 300 301 301 302 304 305 307 308 309 310 310 309 309 308
305 300 305 305 305 305 304 299 298 292 290 289 290 296 295 295 294 297 300 300 301 301 294 295 292 293 300 296 294 295 293 294 296 299 300 301 302 301 301 300 301 302 303 304 305 308 308 309 309 310 306 306 305 307
300 302 305 305 304 303 299 298 293 291 288 291 290 294 296 297 296 298 299 302 300 298 300 298 300 295 292 293 293 298 298 298 299 299 300 301 301 301 301 300 302 303 305 305 306 307 308 308 308 308 308 306 303 303
302 303 305 304 303 298 293 293 294 288 288 289 292 294 294 295 297 297 298 298 300 302 295 298 298 294 294 296 295 297 297 298 298 298 299 300 300 301 301 302 303 304 304 306 306 307 310 311 311 309 307 307 304 303
304 304 304 303 302 295 291 292 296 290 287 291 293 292 293 292 294 294 294 293 294 298 292 291 295 297 297 299 300 299 299 299 298 298 299 300 301 301 302 303 304 305 305 306 308 306 312 315 317 314 311 310 307 305
302 302 303 302 299 297 295 293 291 291 291 290 292 291 291 292 292 292 291 291 289 289 290 294 296 298 300 300 300 299 299 299 299 299 300 300 304 303 303 304 304 305 306 307 308 311 313 317 319 320 321 319 315 313
300 303 298 299 294 294 292 296 293 295 292 292 292 291 287 287 289 290 292 290 289 292 294 293 296 298 299 299 301 300 302 301 300 300 300 300 301 302 303 304 304 307 307 308 311 313 317 319 320 320 320 318 316 317
302 300 297 295 290 289 290 295 291 292 289 290 293 292 290 288 290 294 288 290 292 295 297 297 298 299 299 299 299 300 301 301 301 301 302 302 303 304 304 305 306 306 307 311 314 317 319 311 316 318 319 319 318 319
301 295 292 291 290 288 293 290 293 291 290 289 287 286 288 291 293 290 288 290 293 294 295 298 297 296 297 298 298 301 302 302 302 303 304 305 304 304 305 306 308 309 311 313 316 319 320 320 312 319 317 313 313 314
288 289 291 286 292 288 288 290 289 289 286 287 286 287 288 291 289 288 288 292 293 294 295 295 295 297 296 297 299 301 303 304 303 303 305 306 305 305 306 309 310 313 317 319 320 320 319 319 317 315 312 312 311 310
284 290 286 289 289 287 286 286 286 287 286 287 288 289 292 292 288 290 293 295 303 300 298 297 298 298 299 300 300 302 304 306 306 304 306 308 307 307 308 311 315 318 322 323 321 320 320 318 315 313 310 308 301 309
285 287 291 291 291 291 290 289 290 290 290 290 292 293 290 289 291 296 301 303 304 304 304 304 304 304 303 303 304 307 309 308 308 308 310 311 313 312 313 316 317 320 324 324 323 322 318 316 314 311 310 310 309 310
291 292 288 290 290 290 289 291 292 290 291 291 292 293 292 294 297 304 306 307 305 303 303 303 304 304 304 304 305 306 307 308 309 310 310 313 314 316 319 320 322 306 322 324 323 321 319 319 316 315 314 313 310 310
290 293 294 290 291 293 292 290 290 291 294 295 296 296 298 302 302 300 302 304 305 302 301 304 307 307 307 310 311 308 308 309 311 313 314 315 317 319 321 321 319 321 322 322 305 312 320 320 322 319 316 313 311 310
290 292 290 293 291 290 294 296 293 297 296 297 299 298 297 299 303 305 302 303 303 305 307 308 309 311 314 316 315 312 311 312 314 318 317 316 318 320 321 321 321 321 323 324 324 317 303 311 310 316 313 312 312 310
298 295 293 293 293 295 297 300 300 299 297 296 298 296 297 299 303 307 306 306 307 307 306 308 310 312 314 316 318 319 319 322 321 322 324 321 321 321 321 322 322 322 324 324 320 316 315 314 315 315 313 312 312 309
296 294 293 293 293 298 300 298 299 296 296 296 296 297 300 301 300 306 312 314 313 311 305 309 312 316 320 321 322 322 305 322 324 325 326 321 323 324 324 323 323 323 323 319 317 317 316 315 315 315 314 314 315 313
296 297 297 296 294 296 299 299 298 297 300 300 300 301 302 301 301 309 317 318 318 317 315 317 320 322 322 323 322 320 311 324 318 305 307 307 308 313 321 321 321 320 318 316 316 317 316 316 316 316 314 314 314 313
Wind_Speed
14 13 13 14 13 14 13 13 14 14 14 15 15 13 10 10 11 4 4 2 3 2 7 5 4 4 1 2 3 4 4 3 4 4 3 3 3 3 2 4 3 4 3 4 3 2 5 2 3 1 6 4 1 2
13 13 13 13 13 13 13 12 13 12 13 13 13 13 11 8 8 4 2 2 1 3 7 3 7 6 6 8 5 2 4 3 5 4 1 2 1 1 1 4 3 4 6 4 8 7 5 4 2 1 2 2 2 1
13 13 13 12 12 12 12 13 14 14 15 12 8 10 11 9 8 1 1 3 2 2 6 3 6 2 2 8 9 5 3 4 3 4 5 2 2 4 2 6 3 3 2 1 2 3 5 4 2 3 3 3 3 4
12 12 11 11 10 11 11 11 11 12 13 13 10 10 10 10 10 5 2 1 1 1 2 8 3 5 4 5 8 9 4 4 5 3 3 3 3 4 4 4 4 5 1 3 6 10 4 10 7 8 6 5 5 7
13 12 11 11 9 10 10 9 9 10 11 11 12 10 9 10 9 6 2 3 2 3 3 7 8 6 4 6 8 7 5 4 2 2 2 4 2 3 1 1 5 5 8 5 9 14 6 9 5 5 7 7 9 8
14 13 12 12 11 10 11 10 9 9 10 11 8 9 10 11 7 2 3 0 2 3 1 5 5 6 2 6 7 7 6 4 4 6 5 3 3 5 4 4 6 6 6 9 9 4 8 11 8 8 11 13 11 9
14 15 15 15 13 12 11 10 10 8 8 9 9 11 9 9 2 3 1 2 3 2 2 5 6 4 3 2 1 3 3 3 4 4 3 4 4 5 3 9 6 12 8 7 8 1 8 12 9 8 7 12 7 7
14 13 13 12 12 11 10 9 9 8 7 8 9 8 8 7 6 4 2 5 5 2 1 3 7 5 1 2 1 1 2 1 1 3 2 3 2 2 5 9 11 12 7 8 11 6 12 9 8 9 6 4 6 8
14 14 13 13 12 11 9 9 8 7 8 9 8 10 3 2 3 3 4 4 1 2 3 3 3 4 3 1 1 3 2 1 1 3 4 5 3 7 7 5 4 4 4 9 11 7 8 7 7 9 9 8 9 11
15 14 14 13 12 11 10 7 6 6 7 9 2 2 2 2 8 7 4 2 1 2 2 3 1 4 2 2 3 3 2 1 1 5 3 3 5 3 3 3 5 4 5 8 6 7 6 5 5 6 5 5 5 7
14 13 13 13 13 12 10 6 2 3 3 2 3 2 1 2 1 1 3 3 3 3 4 5 7 6 1 2 2 2 1 1 1 5 4 3 4 1 1 1 1 1 1 2 5 6 8 8 11 12 12 9 7 6
14 13 13 13 11 12 9 5 2 2 1 3 4 4 1 3 3 4 4 4 5 7 4 4 5 5 3 2 2 3 4 1 6 2 2 3 3 3 3 3 5 6 6 7 6 10 13 14 14 15 15 15 14 12
13 9 9 9 9 10 10 7 5 4 2 1 2 5 4 3 6 7 8 5 5 4 4 3 3 4 1 1 3 4 5 6 2 1 4 3 2 3 5 5 7 6 7 7 10 11 14 17 16 15 17 16 17 14
12 11 10 8 7 7 10 7 4 3 2 3 3 5 5 4 5 6 4 3 3 3 4 3 2 4 4 4 3 5 4 2 2 2 5 3 5 4 6 4 3 9 10 11 13 14 15 16 16 17 15 15 14 14
12 12 11 10 9 7 6 5 3 2 0 3 5 5 7 4 3 2 3 1 3 2 1 1 1 2 2 3 2 2 2 4 5 5 3 4 6 6 6 6 7 8 9 10 13 13 15 14 15 17 14 13 13 10
9 7 5 10 13 12 11 5 1 1 2 4 5 3 1 1 3 2 3 4 2 2 0 1 2 3 2 2 3 6 4 6 4 3 3 3 4 7 7 7 9 8 9 11 13 12 14 14 14 14 12 11 9 8
11 2 9 15 12 11 13 3 2 4 4 4 3 3 4 3 2 2 3 1 1 2 1 1 4 5 3 2 3 4 5 3 3 2 2 5 6 8 7 7 9 8 10 11 12 12 13 13 13 11 10 9 7 8
1 4 11 9 8 6 2 3 2 4 6 4 4 2 3 3 2 2 4 4 4 2 1 2 2 4 5 6 3 3 2 1 2 3 3 5 6 7 6 8 10 8 11 11 11 12 12 12 10 8 8 7 5 5
4 5 11 11 5 3 3 4 3 3 6 3 4 3 3 3 3 3 4 4 2 1 3 2 5 4 4 4 4 2 2 3 3 4 4 6 6 7 8 7 6 8 9 9 10 9 9 11 8 6 6 4 5 4
11 10 11 7 2 2 4 3 3 3 3 3 3 3 3 5 6 4 5 3 2 3 4 4 5 3 4 3 3 3 4 4 3 3 5 5 4 5 6 5 6 7 7 8 8 9 8 9 6 4 4 4 3 4
9 4 6 5 3 3 3 3 4 3 3 4 3 4 4 2 7 8 5 4 3 4 5 7 6 5 6 4 3 2 3 4 5 5 6 6 5 3 4 4 5 4 4 5 6 8 8 7 7 10 9 7 2 4
1 10 2 3 1 3 3 2 2 1 3 4 3 3 3 3 4 5 4 4 5 7 7 4 6 8 6 6 6 6 7 6 5 4 6 3 4 4 4 3 3 5 5 5 5 5 6 6 5 6 6 7 6 7
7 2 2 3 3 3 4 2 4 4 3 3 1 3 3 3 4 3 3 5 6 7 8 8 10 10 13 8 3 7 7 6 6 6 6 4 5 4 3 4 3 5 6 5 3 4 4 6 5 5 5 4 4 5
1 3 3 3 4 2 2 3 3 3 3 2 2 4 4 4 2 2 4 4 5 3 5 11 5 2 2 2 5 8 6 5 5 4 3 4 3 4 3 4 4 5 6 6 4 3 3 3 5 4 4 4 4 4
2 2 3 4 3 2 4 3 3 2 3 3 3 4 4 2 2 3 4 5 2 3 4 4 5 6 6 4 3 6 5 4 4 4 3 4 3 2 3 4 5 5 3 3 0 2 3 4 4 5 4 4 6 6
3 4 4 5 3 4 3 2 3 4 3 3 5 4 1 2 2 4 3 3 2 2 3 5 6 4 5 7 5 3 3 4 4 2 3 5 4 4 3 2 2 1 2 2 3 3 4 4 4 5 5 6 8 9
3 4 4 3 2 2 3 4 3 2 4 4 3 3 3 3 4 3 2 2 2 3 3 3 4 5 4 3 3 3 3 4 4 4 2 1 4 5 4 3 3 2 2 3 3 1 3 3 3 3 5 5 4 5
4 2 5 4 3 3 3 3 3 4 4 3 0 3 3 3 1 2 2 3 4 2 2 2 3 3 4 4 3 3 3 3 4 3 3 5 7 6 6 5 4 4 3 4 3 2 2 3 5 6 5 5 5 5
4 2 2 4 4 5 6 5 4 4 4 3 2 3 3 3 2 2 4 4 2 3 3 3 3 3 3 3 3 3 3 3 6 5 5 3 2 2 3 4 5 4 3 3 2 2 1 1 3 4 6 5 4 3
5 5 3 4 5 6 6 7 5 4 3 4 3 4 5 8 10 7 6 7 4 6 5 4 3 3 3 3 3 3 4 5 4 4 3 4 4 4 5 5 5 4 3 3 2 3 5 3 5 3 4 4 3 3
2 4 4 4 5 6 9 8 6 4 4 5 5 6 10 6 7 6 5 4 4 3 3 3 3 4 4 3 3 3 3 5 9 8 4 1 5 6 5 4 4 4 3 3 3 3 4 4 4 5 5 5 5 5
5 7 4 5 5 4 3 4 3 4 4 4 4 4 2 3 4 3 1 2 3 3 5 4 4 4 4 3 2 2 2 3 5 4 5 4 4 4 4 3 3 3 3 3 3 3 6 5 4 3 3 3 3 5
3 4 4 3 3 3 2 1 3 4 3 3 3 3 3 4 4 3 1 3 2 2 3 3 3 3 3 4 4 3 3 3 5 4 4 6 9 8 4 4 3 2 4 4 4 4 5 5 3 3 4 4 3 4
Wind_Direction
293 294 301 300 303 303 300 307 308 312 313 315 320 318 325 339 350 27 280 338 95 229 274 215 237 201 168 126 167 271 19 338 24 63 134 225 188 257 319 243 199 195 154 212 120 179 265 349 328 243 223 288 276 23
290 295 297 300 301 306 302 305 310 314 314 303 308 321 316 327 336 48 297 347 17 177 249 248 248 245 201 190 153 233 202 206 196 96 185 113 282 10 94 289 310 276 188 195 174 217 239 271 188 306 196 254 348 322
286 287 288 289 292 297 302 303 302 303 303 313 300 322 323 338 326 337 264 302 25 350 295 352 250 331 203 196 198 151 263 196 171 173 155 158 223 131 206 243 277 300 149 188 12 268 236 228 262 220 235 232 278 278
280 286 290 292 295 293 296 301 307 305 307 307 316 317 327 342 330 295 223 179 75 113 274 281 323 286 209 189 191 208 148 69 93 91 126 144 174 167 214 240 219 205 97 215 261 276 257 270 243 228 251 262 274 268
267 270 275 276 280 289 294 301 303 309 304 301 294 304 313 315 324 307 213 207 184 162 248 285 302 259 250 182 190 196 168 128 132 107 135 213 187 128 211 25 258 177 206 185 244 263 207 260 248 267 244 252 265 258
263 262 262 266 268 273 277 283 292 299 307 302 321 316 308 304 338 290 293 306 180 170 117 309 289 282 272 214 213 201 188 152 163 161 203 220 240 136 177 234 254 242 247 232 250 256 215 252 268 236 228 245 245 240
257 256 256 257 259 268 278 283 291 299 294 294 291 289 278 277 263 217 226 189 165 148 200 302 288 267 281 293 359 100 96 167 150 167 199 178 215 153 169 243 260 263 244 254 243 253 286 258 245 283 252 252 236 238
257 257 254 251 259 259 272 280 287 303 311 300 292 303 317 271 273 270 201 197 155 244 224 255 270 324 150 313 338 357 109 55 223 177 93 164 79 128 246 239 245 268 320 290 269 234 250 291 308 285 282 277 218 218
249 249 251 250 249 254 255 267 284 295 302 310 309 305 289 211 212 220 141 104 160 232 237 193 224 256 12 357 285 8 63 140 344 208 221 128 186 223 229 243 280 321 286 286 304 26 16 23 343 345 334 307 247 247
249 242 242 243 241 244 243 249 282 295 309 301 278 213 229 228 130 104 28 59 6 239 243 245 253 259 58 12 6 22 9 241 243 246 103 164 248 79 34 47 122 101 60 41 45 357 340 337 330 314 305 301 304 276
255 252 252 244 239 227 231 235 269 311 328 234 216 232 177 143 107 182 166 197 165 230 206 228 202 237 270 131 242 181 224 231 248 255 163 227 265 184 273 103 355 20 69 144 189 222 235 250 280 283 283 263 241 225
253 254 254 250 240 224 218 214 192 144 201 324 298 282 184 198 207 185 198 182 208 223 202 187 212 185 253 121 113 240 196 140 244 142 151 254 245 207 226 248 265 263 282 303 299 293 296 293 290 286 284 283 272 254
233 227 228 233 234 227 219 208 196 221 345 275 234 193 180 196 217 199 191 195 211 199 195 187 199 175 225 222 196 169 203 227 99 182 225 223 232 216 235 252 276 283 286 278 289 297 297 293 291 284 284 281 276 271
234 221 207 214 227 223 220 198 182 150 136 228 216 212 204 198 227 201 199 178 206 213 168 186 200 179 186 160 214 187 218 99 248 243 237 220 207 221 237 250 280 288 298 299 296 299 294 294 293 291 281 279 267 260
226 217 208 205 201 188 137 93 359 140 278 253 242 212 217 232 243 230 228 248 243 239 215 261 191 176 174 199 189 123 146 238 205 225 224 209 207 224 258 272 273 276 282 291 291 292 290 290 292 292 291 284 274 257
206 224 210 193 201 179 166 155 189 154 224 238 246 255 263 301 259 233 228 243 215 169 232 271 170 173 177 144 165 216 175 214 235 208 222 174 216 239 255 267 270 272 277 285 288 287 286 287 292 295 300 294 290 275
161 193 191 196 192 182 160 144 151 191 234 249 241 260 258 289 272 310 297 321 138 109 204 170 208 189 118 159 241 183 205 218 201 225 215 215 225 243 259 273 276 277 289 290 290 292 290 289 287 285 283 289 283 280
140 164 128 133 156 135 134 202 206 222 230 238 249 223 205 228 200 188 304 338 36 33 313 355 303 226 182 180 218 225 177 258 256 227 234 253 256 262 258 265 278 285 289 293 287 293 291 290 288 287 282 271 276 276
148 143 160 141 128 128 159 177 225 247 236 238 243 229 212 220 256 255 206 196 170 116 339 312 243 210 213 206 185 196 203 201 218 246 243 253 248 254 269 269 276 285 286 293 301 295 295 289 276 282 280 275 266 265
152 154 151 146 133 165 178 206 205 229 248 247 255 235 244 246 266 230 219 206 175 141 231 224 233 223 198 232 219 196 195 192 176 281 293 291 257 239 257 267 279 291 295 299 294 278 303 321 320 270 283 297 262 273
129 165 161 150 216 222 245 187 201 217 237 237 253 182 226 194 225 225 220 135 145 212 224 217 224 235 236 235 233 225 236 183 224 201 262 279 290 230 277 277 271 277 292 295 298 317 332 326 338 345 7 17 342 288
148 148 114 158 268 176 250 235 266 134 239 238 245 223 234 217 212 201 149 159 207 220 211 194 216 219 235 250 247 212 238 241 247 251 252 239 278 279 277 273 314 303 291 281 287 314 312 306 339 341 360 357 8 32
143 167 167 151 198 222 257 171 235 205 243 255 305 230 215 231 225 137 199 207 224 211 196 199 203 214 224 235 223 251 234 227 248 241 251 235 242 246 265 275 235 268 286 292 284 296 306 317 332 343 344 2 37 56
292 210 209 201 200 232 237 262 206 267 253 268 257 269 250 221 152 200 243 234 234 189 186 210 186 175 25 245 233 248 245 198 235 260 207 223 266 281 235 256 244 240 238 271 281 304 332 335 334 349 6 41 54 68
231 217 211 217 208 219 233 220 231 256 251 221 243 259 255 148 208 230 234 267 251 232 219 170 173 195 207 235 256 246 215 181 202 238 224 201 227 305 282 258 257 253 220 232 12 1 355 355 358 13 24 53 68 56
238 213 200 196 189 210 221 245 230 231 235 254 240 255 286 223 236 247 243 249 253 251 199 180 173 176 223 212 232 256 240 181 157 220 259 202 190 196 217 272 297 353 191 183 109 35 4 6 15 54 74 70 67 78
244 231 196 222 250 208 252 251 247 240 251 229 260 256 222 242 237 261 301 240 246 247 211 180 167 182 211 227 228 228 176 160 180 212 248 264 220 209 210 249 305 330 145 123 123 74 67 26 35 94 95 62 43 89
244 246 205 186 201 222 277 320 283 237 237 229 291 260 237 233 142 278 232 301 251 238 200 205 209 219 242 238 219 216 228 215 222 241 267 255 237 227 221 214 220 191 143 130 136 127 110 66 53 55 63 70 62 51
236 243 214 216 220 221 210 219 238 232 215 208 249 289 277 243 246 284 300 299 262 221 241 257 260 225 246 232 213 206 197 178 166 183 230 244 184 186 171 154 151 157 146 135 124 101 4 41 80 81 103 92 85 73
234 170 225 227 203 229 218 195 224 221 219 216 229 285 284 269 272 282 275 274 215 220 218 213 232 220 243 208 201 208 203 191 200 229 203 190 160 134 131 129 132 131 130 120 80 64 91 100 92 91 98 104 111 114
211 175 221 225 247 239 232 232 254 254 240 239 222 235 257 287 295 264 253 244 213 175 168 200 201 204 220 216 215 203 199 177 200 216 231 112 129 136 137 134 144 152 154 147 119 129 105 98 113 116 124 136 161 163
188 203 211 224 248 255 202 201 218 217 241 210 236 194 238 222 266 275 243 165 163 163 203 185 195 219 200 215 257 252 198 144 160 179 166 150 134 133 135 154 166 158 163 172 153 126 102 118 123 149 175 167 167 176
220 196 214 257 270 279 257 258 261 276 240 244 249 213 207 189 248 283 285 220 207 178 194 197 201 225 207 218 221 224 208 168 146 147 156 148 146 148 164 185 180 181 175 143 131 130 120 133 134 97 81 106 110 110